EDT,Max TemperatureF,Mean TemperatureF,Min TemperatureF,Max Dew PointF,MeanDew PointF,Min DewpointF,Max Humidity, Mean Humidity, Min Humidity, Max Sea Level PressureIn, Mean Sea Level PressureIn, Min Sea Level PressureIn, Max VisibilityMiles, Mean VisibilityMiles, Min VisibilityMiles, Max Wind SpeedMPH, Mean Wind SpeedMPH, Max Gust SpeedMPH,PrecipitationIn, CloudCover, Events, WindDirDegrees
2013-6-1,92,80,69,70,64,57,88,62,38,29.92,29.84,29.75,10,10,7,12,4,18,0.00,3,Rain,189
2013-6-2,87,78,69,71,65,56,91,73,50,29.79,29.69,29.62,10,10,5,9,6,20,0.00,4,Rain,187
2013-6-3,70,64,56,59,49,40,73,55,39,29.84,29.80,29.73,10,10,10,10,6,18,0.00,4,,254
2013-6-4,66,58,51,45,41,38,79,54,40,30.10,29.97,29.84,10,10,10,13,6,23,0.00,4,,285
2013-6-5,69,55,41,48,42,37,90,58,31,30.22,30.17,30.10,10,10,5,7,1,,0.00,0,,350
2013-6-6,62,55,49,51,47,42,89,74,50,30.17,30.14,30.06,10,10,10,9,3,,0.00,7,Rain,70
2013-6-7,60,56,54,54,51,50,91,84,72,30.08,29.98,29.89,10,8,4,13,4,,0.00,8,Rain,126
2013-6-8,60,57,54,57,54,52,93,90,83,30.01,29.88,29.79,10,7,1,6,2,,0.00,8,Rain,325
2013-6-9,77,67,57,59,55,48,93,70,36,30.19,30.08,30.01,10,10,5,8,2,17,0.00,5,Rain,267
2013-6-10,79,66,52,57,52,46,91,66,31,30.20,30.10,29.95,10,10,10,9,4,,0.00,1,Rain,146
2013-6-11,60,57,54,57,56,52,91,89,85,29.95,29.73,29.60,10,8,3,10,3,,0.00,8,Rain,60
2013-6-12,74,64,54,57,53,50,91,75,49,29.85,29.77,29.65,10,9,4,15,8,25,0.00,7,Rain,4
2013-6-13,74,62,49,58,53,47,92,71,48,29.82,29.75,29.68,10,9,3,7,2,,0.00,2,,173
2013-6-14,79,66,54,57,52,43,92,65,37,29.85,29.76,29.69,10,9,2,10,2,,0.00,1,,318
2013-6-15,77,62,46,50,44,38,90,50,25,29.95,29.90,29.86,10,10,7,9,3,18,0.00,0,,250
2013-6-16,69,62,56,59,51,43,92,69,43,29.87,29.79,29.68,10,7,2,9,4,,0.00,5,Rain,188
2013-6-17,74,64,54,61,55,48,93,73,54,29.94,29.81,29.74,10,8,1,9,3,,0.00,6,Rain,260
2013-6-18,74,62,49,52,47,40,91,63,31,30.00,29.96,29.93,10,10,7,10,1,20,0.00,4,,336
2013-6-19,72,59,46,48,41,36,86,53,31,30.17,30.09,30.00,10,10,10,13,5,20,0.00,0,,341
2013-6-20,77,62,46,52,45,37,89,58,27,30.26,30.21,30.17,10,10,10,6,2,,0.00,0,,181
2013-6-21,83,68,54,60,51,48,84,57,30,30.25,30.21,30.19,10,10,5,7,2,,0.00,1,,199
2013-6-22,74,68,61,66,60,54,90,79,61,30.19,30.14,30.08,10,8,2,7,3,,0.00,5,Rain,106
2013-6-23,83,73,64,72,68,62,92,84,60,30.08,30.01,29.95,10,5,0,6,1,,0.00,7,Fog-Rain,226
2013-6-24,89,79,69,72,67,60,92,73,46,29.96,29.91,29.84,10,10,7,9,4,20,0.00,3,Rain,199
2013-6-25,88,78,69,71,66,64,91,81,56,29.88,29.80,29.73,10,8,2,8,6,,0.00,3,Rain,186
2013-6-26,80,74,69,71,67,65,92,82,58,29.79,29.75,29.73,10,7,2,9,3,,0.00,5,Rain,185
2013-6-27,82,72,62,68,66,59,89,77,60,29.78,29.76,29.72,10,9,4,9,4,,0.00,5,Rain,332
2013-6-28,77,67,57,65,59,54,93,81,57,29.72,29.52,29.38,10,9,2,13,6,25,0.00,6,Rain,11
2013-6-29,77,68,58,67,61,55,92,80,59,29.66,29.56,29.50,10,10,1,8,2,,0.00,6,Rain,59
2013-6-30,81,70,59,65,61,57,93,73,50,29.94,29.81,29.66,10,9,0,7,1,,0.00,4,Fog,294